Weather History for Corpus Christi, TX

Change the Weather History Date:

Friday, December 7, 2012

  Actual Average Record
Temperature  
Mean Temperature 75 °F 60 °F  
Max Temperature 87 °F 70 °F 88 °F (1924)
Min Temperature 63 °F 50 °F 24 °F (1950)
Degree Days  
Heating Degree Days 0 7  
Month to date heating degree days 2 45  
Since 1 July heating degree days 41 146  
Cooling Degree Days 10 2  
Month to date cooling degree days 58 14  
Year to date cooling degree days 4429 3489  
Growing Degree Days 25 (Base 50)    
Moisture  
Dew Point 65 °F    
Average Humidity 73    
Maximum Humidity 100    
Minimum Humidity 45    
Precipitation  
Precipitation 0.00 in 0.05 in 1.98 in (1960)
Month to date precipitation 0.01 0.35  
Year to date precipitation 18.80 30.28  
Snow  
Snow 0.00 in - - ()
Month to date snowfall 0.0  
Since 1 July snowfall 0.0  
Snow Depth 0.00 in    
Sea Level Pressure  
Sea Level Pressure 29.83 in    
Wind  
Wind Speed 13 mph (SSE)    
Max Wind Speed 25 mph    
Max Gust Speed 31 mph    
Visibility 10 miles    
Events Fog    
T = Trace of Precipitation, MM = Missing Value Source: NWS Daily Summary

Daily Weather History Graph

Daily Weather History Graph

Search for Another Location

Airport:

Trip Planner

Search our weather history database for the weather conditions in past years. The results will help you decide how hot, cold, wet, or windy it might be!

Date:

Astronomy

Dec. 07, 2012 Rise Set
Actual Time 7:08 AM CST 5:35 PM CST
Civil Twilight 6:42 AM CST 6:00 PM CST
Nautical Twilight 6:13 AM CST 6:29 PM CST
Astronomical Twilight 5:45 AM CST 6:58 PM CST
Moon 12:57 AM CST (12/7) 1:07 PM CST (12/7)
Length of Visible Light 11h 17m
Length of Day
10h 26m
Last Quarter, 38% of the Moon is Illuminated
Dec 7
Last Quarter
Dec 13
New
Dec 19
First Quarter
Dec 28
Full
Jan 4
Last Quarter

Hourly Weather History & Observations

Time (CST) Temp. Heat Index Dew Point Humidity Pressure Visibility Wind Dir Wind Speed Gust Speed Precip Events Conditions
12:51 AM 66.9 °F - 64.0 °F 90% 29.85 in 10.0 mi SE 8.1 mph - N/A   Clear
1:51 AM 64.9 °F - 63.0 °F 93% 29.85 in 10.0 mi SE 6.9 mph - N/A   Clear
2:51 AM 64.9 °F - 62.1 °F 90% 29.84 in 10.0 mi SE 6.9 mph - N/A   Clear
3:51 AM 63.0 °F - 61.0 °F 93% 29.83 in 10.0 mi SE 6.9 mph - N/A Fog Shallow Fog
4:51 AM 62.6 °F - 62.6 °F 100% 29.83 in 10.0 mi ESE 8.1 mph - N/A Fog Patches of Fog
5:51 AM 64.9 °F - 63.0 °F 93% 29.83 in 10.0 mi SE 8.1 mph - N/A Fog Patches of Fog
6:51 AM 63.0 °F - 61.0 °F 93% 29.84 in 8.0 mi SE 9.2 mph - N/A   Clear
7:51 AM 66.9 °F - 64.9 °F 93% 29.85 in 10.0 mi SE 6.9 mph - N/A   Clear
8:51 AM 73.9 °F - 68.0 °F 82% 29.86 in 10.0 mi SSE 11.5 mph - N/A   Clear
9:51 AM 78.1 °F - 66.9 °F 68% 29.87 in 10.0 mi South 19.6 mph 24.2 mph N/A   Partly Cloudy
10:51 AM 82.0 °F 84.1 °F 66.0 °F 58% 29.87 in 10.0 mi South 18.4 mph 24.2 mph N/A   Scattered Clouds
11:04 AM 82.4 °F 83.9 °F 64.4 °F 54% 29.87 in 10.0 mi South 18.4 mph 24.2 mph N/A   Mostly Cloudy
11:30 AM 82.4 °F 83.9 °F 64.4 °F 54% 29.85 in 10.0 mi South 20.7 mph - N/A   Scattered Clouds
11:51 AM 84.0 °F 85.8 °F 64.9 °F 53% 29.84 in 10.0 mi SSE 18.4 mph 26.5 mph N/A   Scattered Clouds
12:51 PM 84.9 °F 85.9 °F 63.0 °F 48% 29.81 in 10.0 mi South 13.8 mph 21.9 mph N/A   Scattered Clouds
1:51 PM 86.0 °F 87.3 °F 64.0 °F 48% 29.78 in 10.0 mi SSE 19.6 mph 25.3 mph N/A   Scattered Clouds
2:51 PM 86.0 °F 86.8 °F 63.0 °F 46% 29.77 in 10.0 mi SSE 18.4 mph 28.8 mph N/A   Scattered Clouds
3:51 PM 82.9 °F 84.4 °F 64.0 °F 53% 29.76 in 10.0 mi SSE 20.7 mph 25.3 mph N/A   Partly Cloudy
4:51 PM 80.1 °F 81.9 °F 64.9 °F 60% 29.77 in 10.0 mi SSE 18.4 mph - N/A   Partly Cloudy
5:51 PM 75.9 °F - 66.0 °F 71% 29.78 in 10.0 mi SSE 17.3 mph - N/A   Partly Cloudy
6:51 PM 73.4 °F - 66.2 °F 78% 29.80 in 10.0 mi SE 12.7 mph - N/A   Partly Cloudy
7:51 PM 73.0 °F - 66.0 °F 79% 29.82 in 10.0 mi SSE 11.5 mph - N/A   Scattered Clouds
8:51 PM 73.0 °F - 66.9 °F 81% 29.83 in 10.0 mi SSE 11.5 mph - N/A   Partly Cloudy
9:51 PM 71.1 °F - 66.0 °F 84% 29.85 in 10.0 mi SSE 8.1 mph - N/A   Clear
10:51 PM 71.1 °F - 66.0 °F 84% 29.84 in 10.0 mi SSE 10.4 mph - N/A   Partly Cloudy
11:51 PM 71.1 °F - 66.9 °F 87% 29.83 in 10.0 mi SSE 9.2 mph - N/A   Scattered Clouds